User: anonymous   Login
Location: Unspecified
(0.0000°N, 0.0000°E)
Time: 23:38:52
(UTC+00:00)
Language:

USA 153 - Orbit

View from above orbital plane
View from above orbital plane
View from above satellite
View from above satellite

Ground track
Ground track

The orbit data is extracted from the following two-line orbital elements,

1 26575U 00065A   17310.86741834 0.00000000  00000-0  00000-0 0    02
2 26575   6.3392  55.1585 0004437 286.4233  73.5334  1.00270000    00
Epoch (UTC): 06 November 2017 20:49:04
Eccentricity: 0.0004437
inclination: 6.3392°
perigee height: 35768 km
apogee height: 35805 km
right ascension of ascending node: 55.1585°
argument of perigee: 286.4233°
revolutions per day: 1.00270000
mean anomaly at epoch: 73.5334°
orbit number at epoch: 0

The dashed part of the orbit path shows where the satellite is in the earth's shadow,  

DLR